Location: Smyrna_Hopewell
(35.6500°N, 81.0330°W)
Time: 18:07:31
(UTC-05:00)

Cosmos 2221 - Visible Passes

Search period start: 20 December 2014 00:00
Search period end: 30 December 2014 00:00
Orbit: 596 x 622 km, 82.5° (Epoch: 19 December)

Date Brightness Start Highest point End Pass type
(mag) Time Alt. Az. Time Alt. Az. Time Alt. Az.
20 Dec 2.3 19:04:34 10° N 19:08:51 79° E 19:13:07 10° S visible
21 Dec 3.1 19:18:51 10° NNW 19:23:01 55° W 19:27:11 10° S visible
22 Dec 3.9 17:56:31 10° NNE 17:59:27 18° ENE 18:02:23 10° ESE visible
22 Dec 4.4 19:33:24 10° NNW 19:37:07 29° W 19:40:49 10° SSW visible
23 Dec 5.7 06:24:35 10° ESE 06:26:27 13° E 06:28:19 10° ENE visible
23 Dec 3.2 18:09:58 10° NNE 18:13:48 31° ENE 18:17:36 10° SE visible
23 Dec 5.3 19:48:27 10° NW 19:51:08 17° W 19:53:50 10° SW visible
24 Dec 5.2 06:37:04 10° SE 06:40:27 23° E 06:43:49 10° NE visible
24 Dec 2.5 18:23:50 10° N 18:28:03 58° E 18:32:15 10° SSE visible
25 Dec 4.1 06:50:27 10° SSE 06:54:30 40° E 06:58:33 10° NNE visible
25 Dec 2.7 18:37:58 10° N 18:42:14 74° W 18:46:29 10° S visible
26 Dec 3.9 18:52:21 10° NNW 18:56:20 39° W 19:00:19 10° SSW visible
27 Dec 5.1 19:07:06 10° NW 19:10:22 22° W 19:13:38 10° SW visible
28 Dec 5.5 05:56:51 10° SE 05:59:40 17° E 06:02:29 10° NE visible
28 Dec 2.8 17:43:04 10° N 17:47:09 43° E 17:51:14 10° SSE visible
28 Dec 5.7 19:22:42 10° WNW 19:24:20 12° W 19:25:58 10° WSW visible
29 Dec 4.5 06:09:54 10° SSE 06:13:40 30° E 06:17:27 10° NNE visible
29 Dec 2.4 17:57:03 10° N 18:01:21 82° E 18:05:38 10° S visible
